Iowa City, IA

11:26 PM CST on December 15, 2019 (GMT -0600)
Iowa City Municipal

Weather History for KIOW - October, 2019

Change the Weather History Date:

Thursday, October 31, 2019

  Actual Average Record
Temperature  
Mean Temperature 28 °F 46 °F  
Max Temperature 35 °F 56 °F 87 °F (1950)
Min Temperature 21 °F 37 °F 20 °F (1954)
Degree Days  
Heating Degree Days 37 19  
Month to date heating degree days 496 413  
Since 1 July heating degree days 503 525  
Cooling Degree Days 0 0  
Month to date cooling degree days 18 10  
Year to date cooling degree days 1175 912  
Moisture  
Dew Point 23 °F    
Average Humidity 71    
Maximum Humidity 85    
Minimum Humidity 56    
Precipitation  
Precipitation 0.03 in 0.09 in 2.73 in (1960)
Month to date precipitation 2.14 2.87  
Year to date precipitation 39.11 32.41  
Sea Level Pressure  
Sea Level Pressure 30.10 in    
Wind  
Wind Speed 9 mph (NW)    
Max Wind Speed 23 mph    
Max Gust Speed 30 mph    
Visibility 4 miles    
Events Fog , Snow    
T = Trace of Precipitation, MM = Missing Value Source: NWS Daily Summary

Daily Weather History Graph

Daily Weather History Graph

Search for Another Location

Airport or City:

Astronomy

Oct. 31, 2019 Rise Set
Actual Time 7:36 AM CDT 6:02 PM CDT
Civil Twilight 7:07 AM CDT 6:31 PM CDT
Nautical Twilight 6:35 AM CDT 7:03 PM CDT
Astronomical Twilight 6:02 AM CDT 7:36 PM CDT
Moon 11:27 AM CDT (10/31) 8:56 PM CDT (10/31)
Length of Visible Light 11h 23m
Length of Day
10h 25m
Waxing Crescent, 16% of the Moon is Illuminated
Oct 31
Waxing Crescent
Nov 4
First Quarter
Nov 12
Full
Nov 19
Last Quarter
Nov 26
New

Hourly Weather History & Observations

Time (CDT) Temp. Windchill Dew Point Humidity Pressure Visibility Wind Dir Wind Speed Gust Speed Precip Events Conditions
12:52 AM 30.0 °F 21.1 °F 26.1 °F 85% 30.14 in 1.8 mi NNW 10.4 mph - 0.00 in Snow Light Snow
1:35 AM 30.0 °F 18.3 °F 25.0 °F 82% 30.10 in 2.0 mi NNW 17.3 mph 26.5 mph 0.01 in Snow Light Snow
1:45 AM 30.0 °F 18.7 °F 25.0 °F 82% 30.09 in 1.8 mi NNW 16.1 mph - 0.01 in Snow Light Snow
1:52 AM 30.0 °F 20.0 °F 25.0 °F 82% 30.12 in 2.0 mi NNW 12.7 mph 21.9 mph 0.01 in Snow Light Snow
2:05 AM 30.0 °F 20.0 °F 25.0 °F 82% 30.09 in 1.8 mi NNW 12.7 mph - 0.00 in Snow Light Snow
2:18 AM 30.0 °F 20.5 °F 25.0 °F 82% 30.08 in 2.5 mi NNW 11.5 mph 19.6 mph 0.00 in Snow Light Snow
2:31 AM 30.0 °F 20.0 °F 25.0 °F 82% 30.09 in 3.0 mi NNW 12.7 mph 23.0 mph 0.00 in Snow Light Snow
2:44 AM 30.0 °F 20.0 °F 25.0 °F 82% 30.09 in 2.0 mi NNW 12.7 mph - 0.00 in Snow Light Snow
2:46 AM 30.2 °F 20.8 °F 24.8 °F 80% 30.09 in 1.8 mi NNW 11.5 mph 20.7 mph 0.00 in Snow Light Snow
2:52 AM 28.9 °F 18.2 °F 25.0 °F 85% 30.11 in 1.8 mi NNW 13.8 mph 20.7 mph 0.00 in Snow Light Snow
3:00 AM 28.9 °F 18.6 °F 24.1 °F 82% 30.09 in 2.5 mi NNW 12.7 mph - 0.00 in Snow Light Snow
3:29 AM 28.9 °F 20.4 °F 25.0 °F 85% 30.07 in 2.0 mi NNW 9.2 mph 19.6 mph 0.00 in Snow Light Snow
3:52 AM 28.9 °F 20.4 °F 25.0 °F 85% 30.09 in 2.0 mi NNW 9.2 mph - 0.00 in Snow Light Snow
4:28 AM 28.9 °F 18.6 °F 25.0 °F 85% 30.06 in 1.8 mi NNW 12.7 mph - 0.00 in Snow Light Snow
4:52 AM 28.9 °F 19.2 °F 25.0 °F 85% 30.08 in 2.0 mi NW 11.5 mph - 0.00 in Snow Light Snow
5:09 AM 28.9 °F 19.2 °F 25.0 °F 85% 30.06 in 1.8 mi NW 11.5 mph - 0.00 in Snow Light Snow
5:32 AM 28.9 °F 20.4 °F 25.0 °F 85% 30.06 in 1.8 mi NW 9.2 mph - 0.00 in Snow Light Snow
5:52 AM 28.9 °F 20.4 °F 25.0 °F 85% 30.09 in 1.5 mi NW 9.2 mph 20.7 mph 0.00 in Snow Light Snow
6:04 AM 28.9 °F 19.2 °F 25.0 °F 85% 30.06 in 1.0 mi NW 11.5 mph - 0.00 in Snow Light Snow
6:26 AM 28.9 °F 19.8 °F 25.0 °F 85% 30.06 in 1.0 mi NNW 10.4 mph - 0.01 in Snow Light Snow
6:34 AM 28.9 °F 19.2 °F 25.0 °F 85% 30.06 in 1.2 mi NW 11.5 mph 23.0 mph 0.01 in Snow Light Snow
6:44 AM 28.9 °F 17.3 °F 25.0 °F 85% 30.06 in 1.2 mi NNW 16.1 mph 20.7 mph 0.01 in Snow Light Snow
6:52 AM 28.9 °F 18.2 °F 24.1 °F 82% 30.08 in 1.2 mi NNW 13.8 mph - 0.01 in Snow Light Snow
7:08 AM 28.9 °F 20.4 °F 25.0 °F 85% 30.06 in 1.5 mi NNW 9.2 mph - 0.00 in Snow Light Snow
7:14 AM 28.9 °F 20.4 °F 25.0 °F 85% 30.06 in 1.5 mi NW 9.2 mph - 0.00 in Snow Light Snow
7:23 AM 28.9 °F 19.8 °F 25.0 °F 85% 30.06 in 1.5 mi NW 10.4 mph - 0.00 in Snow Light Snow
7:30 AM 28.9 °F 21.1 °F 25.0 °F 85% 30.06 in 1.8 mi NW 8.1 mph - 0.00 in Snow Light Snow
7:43 AM 28.9 °F 19.8 °F 25.0 °F 85% 30.06 in 2.0 mi NW 10.4 mph - 0.00 in Snow Light Snow
7:49 AM 28.4 °F 18.0 °F 24.8 °F 86% 30.06 in 1.8 mi NW 12.7 mph - 0.00 in Snow Light Snow
7:52 AM 28.9 °F 17.7 °F 24.1 °F 82% 30.09 in 1.5 mi NW 15.0 mph - 0.00 in Snow Light Snow
7:59 AM 28.9 °F 16.9 °F 24.1 °F 82% 30.07 in 1.0 mi NW 17.3 mph 25.3 mph 0.00 in Snow Light Snow
8:07 AM 28.9 °F 19.2 °F 24.1 °F 82% 30.07 in 0.8 mi NW 11.5 mph 25.3 mph 0.00 in Snow Light Snow
8:15 AM 28.9 °F 18.6 °F 24.1 °F 82% 30.07 in 1.0 mi NW 12.7 mph - 0.00 in Snow Light Snow
8:39 AM 28.9 °F 20.4 °F 25.0 °F 85% 30.07 in 0.5 mi NW 9.2 mph - 0.00 in Fog , Snow Snow
8:52 AM 28.9 °F 19.2 °F 25.0 °F 85% 30.10 in 0.8 mi NW 11.5 mph - 0.00 in Snow Light Snow
9:13 AM 28.9 °F 19.2 °F 24.1 °F 82% 30.08 in 1.0 mi NW 11.5 mph - 0.01 in Snow Light Snow
9:30 AM 28.9 °F 19.2 °F 25.0 °F 85% 30.08 in 1.2 mi WNW 11.5 mph - 0.01 in Snow Light Snow
9:50 AM 28.4 °F 18.0 °F 24.8 °F 86% 30.08 in 2.0 mi WNW 12.7 mph - 0.01 in Snow Light Snow
9:52 AM 28.9 °F 18.6 °F 24.1 °F 82% 30.10 in 2.0 mi NW 12.7 mph - 0.01 in Snow Light Snow
10:05 AM 30.0 °F 20.0 °F 23.0 °F 75% 30.08 in 4.0 mi NW 12.7 mph 23.0 mph 0.00 in Snow Light Snow
10:52 AM 30.0 °F 20.0 °F 21.9 °F 72% 30.11 in 5.0 mi NW 12.7 mph 23.0 mph 0.00 in Snow Light Snow
11:52 AM 32.0 °F 20.5 °F 19.9 °F 61% 30.12 in 10.0 mi NW 18.4 mph 27.6 mph 0.00 in   Overcast
12:03 PM 32.0 °F 20.8 °F 19.9 °F 61% 30.09 in 10.0 mi NW 17.3 mph 25.3 mph N/A   Overcast
12:10 PM 32.0 °F 20.8 °F 19.9 °F 61% 30.09 in 10.0 mi NW 17.3 mph 26.5 mph N/A   Mostly Cloudy
12:25 PM 32.0 °F 21.6 °F 19.9 °F 61% 30.10 in 10.0 mi NW 15.0 mph 28.8 mph N/A   Overcast
12:52 PM 32.0 °F 19.5 °F 19.9 °F 61% 30.12 in 10.0 mi NW 21.9 mph 28.8 mph N/A   Mostly Cloudy
1:52 PM 32.0 °F 20.5 °F 19.9 °F 61% 30.13 in 10.0 mi NW 18.4 mph 27.6 mph N/A   Overcast
2:52 PM 32.0 °F 21.6 °F 19.0 °F 59% 30.14 in 10.0 mi NW 15.0 mph 26.5 mph N/A   Overcast
3:38 PM 33.1 °F 23.0 °F 19.9 °F 59% 30.12 in 10.0 mi WNW 15.0 mph 21.9 mph N/A   Scattered Clouds
3:52 PM 33.1 °F 23.9 °F 19.9 °F 59% 30.14 in 10.0 mi WNW 12.7 mph 23.0 mph N/A   Clear
4:52 PM 34.0 °F 26.0 °F 21.0 °F 59% 30.14 in 10.0 mi WNW 10.4 mph - N/A   Clear
5:52 PM 30.9 °F 26.2 °F 21.0 °F 67% 30.16 in 10.0 mi West 4.6 mph - N/A   Clear
6:52 PM 26.1 °F - 19.9 °F 78% 30.17 in 10.0 mi Calm Calm - N/A   Clear
7:52 PM 26.1 °F - 21.0 °F 81% 30.19 in 10.0 mi Calm Calm - N/A   Clear
8:52 PM 25.0 °F - 19.9 °F 81% 30.19 in 10.0 mi Calm Calm - N/A   Clear
9:52 PM 24.1 °F - 19.0 °F 81% 30.20 in 10.0 mi Calm Calm - N/A   Clear
10:52 PM 23.0 °F - 18.0 °F 81% 30.20 in 10.0 mi Calm Calm - N/A   Clear
11:52 PM 21.9 °F 17.2 °F 18.0 °F 85% 30.19 in 10.0 mi SSE 3.5 mph - N/A   Clear